When you browse on this site, cookies collect data to enhance your experience and personalize the content and advertising you see.
Visit our Privacy Policy to learn more. By continuing to use the site, you agree to this use of cookies and data.
  • In Lithuania
  • List of Countries
  • For 7 days
  • Water Temperature
  • Weather Map
  • Weather Widgets
  • user-avatar
    Login

    Hourly Weather San Miguel de Tucumán

    Today, 30 May, Saturday

    Time Temperature Precipitation Wind Pressure Humidity
    00:00 +18°C° 0 mm 1 mps 718 mmHg 67%
    01:00 +18°C° 0 mm 1 mps 718 mmHg 67%
    02:00 +16°C° 0 mm 1 mps 718 mmHg 68%
    03:00 +16°C° 0 mm 1 mps 718 mmHg 68%
    04:00 +16°C° 0 mm 1 mps 718 mmHg 68%
    05:00 +16°C° 0 mm 1 mps 718 mmHg 68%
    06:00 +16°C° 0 mm 1 mps 719 mmHg 67%
    07:00 +16°C° 0 mm 1 mps 720 mmHg 67%
    08:00 +16°C° 0 mm 1 mps 721 mmHg 66%
    09:00 +18°C° 0 mm 2 mps 721 mmHg 61%
    10:00 +19°C° 0 mm 3 mps 721 mmHg 56%
    11:00 +20°C° 0 mm 3 mps 721 mmHg 51%
    12:00 +20°C° 0 mm 3 mps 721 mmHg 52%
    13:00 +19°C° 0 mm 3 mps 721 mmHg 54%
    14:00 +19°C° 0 mm 3 mps 720 mmHg 55%
    15:00 +18°C° 0 mm 3 mps 720 mmHg 58%
    16:00 +17°C° 0 mm 2 mps 721 mmHg 60%
    17:00 +16°C° 0 mm 2 mps 721 mmHg 63%
    18:00 +16°C° 0 mm 1 mps 722 mmHg 63%
    19:00 +15°C° 0 mm 1 mps 723 mmHg 64%
    20:00 +15°C° 0 mm 1 mps 723 mmHg 64%
    21:00 +15°C° 0 mm 1 mps 724 mmHg 64%
    22:00 +15°C° 0 mm 1 mps 724 mmHg 64%
    23:00 +15°C° 0 mm 1 mps 725 mmHg 63%

    Tomorrow, 31 May, Sunday

    Time Temperature Precipitation Wind Pressure Humidity
    00:00 +14°C° 0 mm 1 mps 724 mmHg 68%
    01:00 +13°C° 0 mm 1 mps 724 mmHg 72%
    02:00 +11°C° 0 mm 0 mps 724 mmHg 77%
    03:00 +11°C° 0 mm 0 mps 724 mmHg 77%
    04:00 +11°C° 0 mm 0 mps 724 mmHg 76%
    05:00 +11°C° 0 mm 0 mps 724 mmHg 76%
    06:00 +11°C° 0 mm 0 mps 724 mmHg 74%
    07:00 +11°C° 0 mm 0 mps 724 mmHg 73%
    08:00 +11°C° 0 mm 0 mps 725 mmHg 72%
    09:00 +13°C° 0 mm 1 mps 725 mmHg 67%
    10:00 +14°C° 0 mm 1 mps 725 mmHg 62%
    11:00 +14°C° 0 mm 2 mps 725 mmHg 57%
    12:00 +14°C° 0 mm 2 mps 724 mmHg 54%
    13:00 +15°C° 0 mm 2 mps 724 mmHg 52%
    14:00 +15°C° 0 mm 2 mps 723 mmHg 50%
    15:00 +14°C° 0 mm 2 mps 723 mmHg 50%
    16:00 +14°C° 0 mm 2 mps 723 mmHg 51%
    17:00 +13°C° 0 mm 2 mps 723 mmHg 52%
    18:00 +13°C° 0 mm 2 mps 723 mmHg 55%
    19:00 +12°C° 0 mm 1 mps 724 mmHg 57%
    20:00 +11°C° 0 mm 1 mps 724 mmHg 60%
    21:00 +11°C° 0 mm 1 mps 724 mmHg 62%
    22:00 +10°C° 0 mm 1 mps 724 mmHg 63%
    23:00 +9°C° 0 mm 0 mps 725 mmHg 65%

    Day after tomorrow, 1 June, Monday

    Time Temperature Precipitation Wind Pressure Humidity
    00:00 +10°C° 0 mm 1 mps 724 mmHg 67%
    01:00 +9°C° 0 mm 1 mps 724 mmHg 69%
    02:00 +9°C° 0 mm 1 mps 724 mmHg 71%
    03:00 +9°C° 0 mm 1 mps 724 mmHg 74%
    04:00 +7°C° 0 mm 0 mps 724 mmHg 76%
    05:00 +7°C° 0 mm 0 mps 724 mmHg 79%
    06:00 +7°C° 0 mm 0 mps 724 mmHg 76%
    07:00 +8°C° 0 mm 0 mps 725 mmHg 73%
    08:00 +9°C° 0 mm 0 mps 725 mmHg 70%
    09:00 +11°C° 0 mm 0 mps 725 mmHg 61%
    10:00 +15°C° 0 mm 1 mps 725 mmHg 53%
    11:00 +18°C° 0 mm 1 mps 725 mmHg 44%
    12:00 +19°C° 0 mm 1 mps 725 mmHg 43%
    13:00 +19°C° 0 mm 2 mps 724 mmHg 41%
    14:00 +19°C° 0 mm 2 mps 723 mmHg 39%
    15:00 +18°C° 0 mm 2 mps 723 mmHg 42%
    16:00 +18°C° 0 mm 2 mps 723 mmHg 45%
    17:00 +17°C° 0 mm 2 mps 723 mmHg 48%
    18:00 +15°C° 0 mm 1 mps 723 mmHg 53%
    19:00 +13°C° 0 mm 1 mps 723 mmHg 57%
    20:00 +11°C° 0 mm 1 mps 723 mmHg 62%
    21:00 +11°C° 0 mm 1 mps 723 mmHg 64%
    22:00 +11°C° 0 mm 1 mps 723 mmHg 66%
    23:00 +10°C° 0 mm 1 mps 723 mmHg 69%

    2 June, Tuesday

    Time Temperature Precipitation Wind Pressure Humidity
    00:00 +10°C° 0 mm 1 mps 723 mmHg 71%
    01:00 +10°C° 0 mm 1 mps 723 mmHg 73%
    02:00 +9°C° 0 mm 1 mps 722 mmHg 75%
    03:00 +9°C° 0 mm 1 mps 722 mmHg 75%
    04:00 +9°C° 0 mm 1 mps 722 mmHg 76%
    05:00 +9°C° 0 mm 1 mps 721 mmHg 76%
    06:00 +9°C° 0 mm 1 mps 722 mmHg 73%
    07:00 +10°C° 0 mm 1 mps 722 mmHg 70%
    08:00 +11°C° 0 mm 1 mps 722 mmHg 67%
    09:00 +13°C° 0 mm 1 mps 722 mmHg 59%
    10:00 +16°C° 0 mm 1 mps 721 mmHg 52%
    11:00 +20°C° 0 mm 1 mps 721 mmHg 44%
    12:00 +20°C° 0 mm 2 mps 720 mmHg 42%
    13:00 +21°C° 0 mm 2 mps 720 mmHg 39%
    14:00 +23°C° 0 mm 2 mps 719 mmHg 37%
    15:00 +21°C° 0 mm 2 mps 718 mmHg 41%
    16:00 +20°C° 0 mm 2 mps 718 mmHg 44%
    17:00 +19°C° 0 mm 2 mps 717 mmHg 48%
    18:00 +17°C° 0 mm 2 mps 717 mmHg 53%
    19:00 +15°C° 0 mm 2 mps 717 mmHg 58%
    20:00 +13°C° 0 mm 2 mps 717 mmHg 63%
    21:00 +13°C° 0 mm 2 mps 717 mmHg 66%
    22:00 +12°C° 0 mm 1 mps 717 mmHg 69%
    23:00 +11°C° 0 mm 1 mps 717 mmHg 71%

    3 June, Wednesday

    Time Temperature Precipitation Wind Pressure Humidity
    00:00 +11°C° 0 mm 1 mps 717 mmHg 72%
    01:00 +11°C° 0 mm 1 mps 717 mmHg 72%
    02:00 +10°C° 0 mm 1 mps 716 mmHg 73%
    03:00 +10°C° 0 mm 1 mps 716 mmHg 75%
    04:00 +9°C° 0 mm 1 mps 716 mmHg 76%
    05:00 +8°C° 0 mm 0 mps 716 mmHg 78%
    06:00 +9°C° 0 mm 1 mps 717 mmHg 77%
    07:00 +9°C° 0 mm 1 mps 718 mmHg 76%
    08:00 +9°C° 0 mm 2 mps 719 mmHg 75%
    09:00 +10°C° 0 mm 3 mps 719 mmHg 68%
    10:00 +12°C° 0 mm 3 mps 720 mmHg 61%
    11:00 +14°C° 0 mm 4 mps 720 mmHg 54%
    12:00 +15°C° 0 mm 4 mps 720 mmHg 53%
    13:00 +15°C° 0 mm 4 mps 720 mmHg 51%
    14:00 +16°C° 0 mm 5 mps 720 mmHg 49%
    15:00 +14°C° 0 mm 5 mps 721 mmHg 55%
    16:00 +13°C° 0 mm 4 mps 722 mmHg 60%
    17:00 +11°C° 0 mm 4 mps 722 mmHg 65%
    18:00 +10°C° 0.2 mm 4 mps 723 mmHg 72%
    19:00 +9°C° 0.2 mm 3 mps 724 mmHg 78%
    20:00 +8°C° 0.2 mm 3 mps 725 mmHg 85%
    21:00 +7°C° 0.2 mm 3 mps 726 mmHg 86%
    22:00 +7°C° 0.2 mm 2 mps 726 mmHg 88%
    23:00 +7°C° 0.2 mm 2 mps 726 mmHg 89%

    4 June, Thursday

    Time Temperature Precipitation Wind Pressure Humidity
    00:00 +6°C° 0 mm 2 mps 726 mmHg 88%
    01:00 +6°C° 0 mm 2 mps 726 mmHg 87%
    02:00 +6°C° 0 mm 1 mps 726 mmHg 86%
    03:00 +6°C° 0 mm 1 mps 726 mmHg 85%
    04:00 +6°C° 0 mm 1 mps 726 mmHg 83%
    05:00 +6°C° 0 mm 1 mps 726 mmHg 82%
    06:00 +6°C° 0 mm 1 mps 726 mmHg 81%
    07:00 +6°C° 0 mm 0 mps 726 mmHg 80%
    08:00 +6°C° 0 mm 0 mps 726 mmHg 79%
    09:00 +9°C° 0 mm 1 mps 727 mmHg 69%
    10:00 +11°C° 0 mm 1 mps 727 mmHg 60%
    11:00 +12°C° 0 mm 2 mps 727 mmHg 50%
    12:00 +13°C° 0 mm 2 mps 726 mmHg 45%
    13:00 +14°C° 0 mm 2 mps 725 mmHg 40%
    14:00 +14°C° 0 mm 3 mps 725 mmHg 35%
    15:00 +14°C° 0 mm 2 mps 724 mmHg 38%
    16:00 +14°C° 0 mm 2 mps 724 mmHg 41%
    17:00 +13°C° 0 mm 1 mps 724 mmHg 44%
    18:00 +11°C° 0 mm 1 mps 725 mmHg 51%
    19:00 +9°C° 0 mm 1 mps 725 mmHg 58%
    20:00 +7°C° 0 mm 1 mps 726 mmHg 65%
    21:00 +7°C° 0 mm 1 mps 726 mmHg 65%
    22:00 +7°C° 0 mm 1 mps 726 mmHg 66%
    23:00 +6°C° 0 mm 1 mps 726 mmHg 66%
    Show more